This is the latest recevied weather packets stored in our database for station/object W5ADC. If no packets are shown the sender has not sent any weather packets the latest 10 day(s).
| Time | Temp. | Humidity | Pressure | Rain* | Wind** | Luminosity | Snow |
|---|---|---|---|---|---|---|---|
| 1788459147 | 28.33° C | 77% | 1010.1 hPa | 0 mm | - | 190 W/m² | - |
| 1788458842 | 28.33° C | 78% | 1010.2 hPa | 0 mm | - | 159 W/m² | - |
| 1788458535 | 28.33° C | 78% | 1010.5 hPa | 0 mm | - | 146 W/m² | - |
| 1788458235 | 28.33° C | 79% | 1010.3 hPa | 0 mm | - | 104 W/m² | - |
| 1788457929 | 28.33° C | 79% | 1010.5 hPa | 0 mm | - | 148 W/m² | - |
| 1788457629 | 28.33° C | 79% | 1010.5 hPa | 0 mm | - | 513 W/m² | - |
| 1788457324 | 28.33° C | 79% | 1010.4 hPa | 0 mm | - | 193 W/m² | - |
| 1788457019 | 28.33° C | 80% | 1010.5 hPa | 0 mm | - | 160 W/m² | - |
| 1788456715 | 28.33° C | 80% | 1010.4 hPa | 0 mm | - | 126 W/m² | - |
| 1788456409 | 28.33° C | 81% | 1010.5 hPa | 0 mm | - | 136 W/m² | - |
| 1788456105 | 28.33° C | 80% | 1010.7 hPa | 0 mm | - | 158 W/m² | - |
| 1788455804 | 28.33° C | 80% | 1010.6 hPa | 0 mm | - | 174 W/m² | - |
| 1788455501 | 28.89° C | 80% | 1010.6 hPa | 0 mm | - | 184 W/m² | - |
| 1788455199 | 28.33° C | 80% | 1010.6 hPa | 0 mm | - | 189 W/m² | - |
| 1788454895 | 28.33° C | 81% | 1010.5 hPa | 0 mm | - | 166 W/m² | - |
| 1788454592 | 28.33° C | 81% | 1010.6 hPa | 0 mm | - | 136 W/m² | - |
| 1788454288 | 28.33° C | 82% | 1010.7 hPa | 0 mm | - | 171 W/m² | - |
| 1788453982 | 28.33° C | 82% | 1010.6 hPa | 0 mm | - | 199 W/m² | - |
| 1788453678 | 28.33° C | 82% | 1010.5 hPa | 0 mm | - | 125 W/m² | - |
| 1788453373 | 27.78° C | 83% | 1010.6 hPa | 0 mm | - | 197 W/m² | - |
| 1788453069 | 27.78° C | 83% | 1010.6 hPa | 0 mm | - | 147 W/m² | - |
| 1788452765 | 27.78° C | 83% | 1010.6 hPa | 0 mm | - | 175 W/m² | - |
| 1788452461 | 27.78° C | 84% | 1010.4 hPa | 0 mm | - | 104 W/m² | - |
| 1788452156 | 27.78° C | 85% | 1010.5 hPa | 0 mm | - | 186 W/m² | - |
| 1788451852 | 27.78° C | 85% | 1010.5 hPa | 0 mm | - | 134 W/m² | - |
* Rain latest hour (hover to see other rain measurements)
** Current wind speed in m/s (hover to see current wind gust speed)